Regional Weather Roundup
Issued by NWS Upton, NY

Current Version | Previous Version | Text Only | Print | Product List | Glossary On
Versions: 1 2 3 4 5 6 7 8 9 10 11 12 13 14 15 16 17 18 19 20 21 22 23 24 25 26 27 28 29 30 31 32 33 34 35 36 37 38 39 40 41 42 43 44 45 46 47 48 49 50
000
ASUS41 KOKX 042308
RWROKX

REGIONAL WEATHER ROUNDUP
NATIONAL WEATHER SERVICE NEW YORK NY
700 PM EDT MON MAY 04 2015

NOTE: "FAIR" INDICATES FEW OR NO CLOUDS BELOW 12,000 FEET WITH NO
SIGNIFICANT WEATHER AND/OR OBSTRUCTIONS TO VISIBILITY.

NYZ071-072-176-178-NJZ106-104-050000-
NEW YORK CITY METRO AREA


CITY           SKY/WX    TMP DP  RH WIND       PRES   REMARKS
CENTRAL PARK   CLEAR     82  40  22 VRB6      30.14S
LAGUARDIA APRT PTCLDY    76  45  33 S10       30.11S
KENNEDY INTL   PTCLDY    67  47  48 S25G33    30.14S
NEWARK/LIBERTY PTCLDY    82  41  23 S17G23    30.11S
BRNX BOT. GARD   N/A     73  46  38 SW3       30.13R
TETERBORO      CLEAR     83  39  21 SW18G25   30.09S
$$

NYZ177-179-078>081-050000-
LONG ISLAND NEW YORK

CITY           SKY/WX    TMP DP  RH WIND       PRES   REMARKS
FARMINGDALE    CLEAR     68  45  43 SW17G29   30.15F
ISLIP          CLEAR     66  44  45 S13       30.15F
SHIRLEY        CLEAR     64  45  49 S12       30.17F
WESTHAMPTON    CLEAR     63  43  48 S13G22    30.18F
MONTAUK POINT    N/A     58  46  64 S12       30.18S
$$

NYZ052-065-067-050000-
HUDSON VALLEY

CITY           SKY/WX    TMP DP  RH WIND       PRES   REMARKS
WHITE PLAINS   CLEAR     73  43  33 S7        30.11F
NEWBURGH       CLEAR     81  43  26 W14G23    30.09S
MONTGOMERY     CLEAR     81  43  26 SW16G22   30.06S
POUGHKEEPSIE   PTCLDY    84  38  19 SW13G25   30.05S
ALBANY         MOCLDY    83  38  20 SW10      30.01S
$$

NJZ001-105-106-008-010-013-015-019>022-104-050000-
NEW JERSEY

CITY           SKY/WX    TMP DP  RH WIND       PRES   REMARKS
NEWARK/LIBERTY PTCLDY    82  41  23 S17G23    30.11S
TETERBORO      CLEAR     83  39  21 SW18G25   30.09S
CALDWELL       CLEAR     82  40  22 VRB7G18   30.10S
MORRISTOWN     CLEAR     81  41  24 SW12G18   30.11S
SOMERVILLE     CLEAR     81  41  24 VRB5      30.10S
SUSSEX         CLEAR     81  41  24 SW10G22   30.10F
ANDOVER          N/A     79  42  26 SW10G18   30.11S
TRENTON        CLEAR     79  41  25 SW12G21   30.13S
MILLVILLE      CLEAR     76  46  34 S5        30.18F
ATLANTIC CITY  CLEAR     76  41  28 S17G24    30.18F
WRIGHTSTOWN    CLEAR     79  41  25 SW15      30.12S
TOMS RIVER     CLEAR     77  43  29 S15G22    30.16F
BELMAR         CLEAR     79  43  27 S13G18    30.15S
$$

PAZ047>061-062-071-050000-
EASTERN PENNSYLVANIA

CITY           SKY/WX    TMP DP  RH WIND       PRES   REMARKS
PHILADELPHIA   PTCLDY    82  40  22 SW15      30.15S
ALLENTOWN      SUNNY     81  45  28 SW15G23   30.11S
SCRANTON       SUNNY     82  37  20 SW14      30.09S
$$

CTZ002-004>006-009-010-012-RIZ004-006-007-MAZ004-011-015-050000-
SOUTHERN NEW ENGLAND
 IN CT

CITY           SKY/WX    TMP DP  RH WIND       PRES   REMARKS
BRADLEY INTL   PTCLDY    78  40  25 S18G28    30.08R
HARTFORD       CLEAR     76  40  27 S20G32    30.09S
DANBURY        CLEAR     75  40  28 S10G23    30.11F
WTRBRY/OXFORD  PTCLDY    73  39  29 SW16G24   30.13F
BRIDGEPORT     CLEAR     69  44  40 S22G29    30.12S
MERIDEN        CLEAR     75  40  28 S16G24    30.12R
NEW HAVEN      CLEAR     66  44  45 S14       30.13S
CHESTER        FAIR      72  39  30 SW12G18   30.15S
GROTON         CLEAR     60  44  55 VRB5      30.15S
WILLIMANTIC    CLEAR     76  40  27 SW16G22   30.12R

 IN RI

CITY           SKY/WX    TMP DP  RH WIND       PRES   REMARKS
PROVIDENCE     MOCLDY    74  40  29 SW22G29   30.13S
BLOCK ISLAND   CLEAR     55  45  67 SW21      30.17S
WESTERLY       CLEAR     62  43  49 SW10      30.17S

 IN MA

CITY           SKY/WX    TMP DP  RH WIND       PRES   REMARKS
BOSTON         PTCLDY    78  37  22 SW23G32   30.06R
WORCESTER      CLEAR     75  38  26 S17G28    30.10S
WESTFIELD      PTCLDY    79  40  24 S22G28    30.06R
PROVINCETOWN   CLEAR     59  46  63 SW20G28   30.13S
NANTUCKET      CLEAR     54  50  86 SW13      30.20S
$$

ANZ330-335-338-340-345-350-353-355-050000-
COASTAL MARINE OBSERVATIONS


STATION/POSITION TIME  SKY/WX   TEMP    WIND        PRES    VSBY  WAVE
                                AIR SEA DIR/SP/G                  HT/PER
                 (UTC)          (F)     (DEG/KT/KT) (MB)    (MI)  (FT/S)
NY HARB ENTRANCE 2250            58 52  200/ 17/ 19 1020.3          4/ 4
4S FIRE IS       2203               50                N/A           4/ 8
20S FIRE ISLAND  2250            54 49  190/ 16/ 17 1021.4          3/ 9
GREAT SOUTH BAY  2230            59 60  230/ 14/ 19   N/A
23SW MTP         2250            52 46  210/ 16/ 17 1021.7          3/ 9
HUDSON CANYON    NOT AVBL
KINGS POINT      2200            69 53  200/ 16/ 20 1019.5
EASTERN LI SOUND 2200            57     220/ 10/ 14   N/A
ROBBINS REEF     2200            81     230/ 17/ 21 1018.6
$$


>>>>>>>>>>>>>>>>>>>>>>>>>>>> KEY <<<<<<<<<<<<<<<<<<<<<<<<<<<
>                                                          <
>     SKY/WX - SKY CONDITION/PRESENT WEATHER               <
>     TMP    - TEMPERATURE IN FAHRENHEIT                   <
>     DP     - DEWPOINT IN FAHRENHEIT                      <
>     RH     - RELATIVE HUMIDITY IN PERCENT                <
>     WIND   - DIRECTION AND SPEED IN MPH                  <
>     PRES   - MEAN SEA LEVEL PRESSURE IN INCHES OF HG     <
>     WCI    - WIND CHILL INDEX                            <
>     VSB    - VISIBILITY IN MILES                         <
>     HX     - HEAT INDEX                                  <
>     TC     - TEMPERATURE IN CELSIUS                      <
>     VRB    - VARIABLE WIND DIRECTION                     <
>                                                          <
>>>>>>>>>>>>>>>>>>>>>>>>>>>> KEY <<<<<<<<<<<<<<<<<<<<<<<<<<<





USA.gov is the U.S. government's official web portal to all federal, state and local government web resources and services.